IK1AMC-3 Weather Reports


time (UTC)temp
C
wind
direction
speed
KPH
gust
KPH
rain 1hr
cm
rain 24hr
cm
rain mn
cm
humidity
%
barometer
mb
20260508010010 15 0.0 0.0 0.00 0.00 0.00 73 1012.5
20260508004009 15 0.0 0.0 0.00 0.00 0.00 76 1012.8
20260508002007 15 0.0 0.0 0.00 0.00 0.00 75 1012.9
20260508000006 15 0.0 0.0 0.00 0.00 0.00 76 1013.2
20260507234004 15 0.0 0.0 0.00 0.00 0.00 77 1013.4
20260507232003 15 0.0 0.0 0.00 0.00 0.00 77 1013.6
20260507230002 15 0.0 0.0 0.00 0.00 0.00 77 1013.8
20260507224001 16 0.0 0.0 0.00 0.00 0.00 77 1013.5
20260507221959 16 0.0 0.0 0.00 0.00 0.00 78 1014.0
20260507215958 16 0.0 0.0 0.00 0.00 0.00 77 1013.7
20260507213957 16 0.0 0.0 0.00 0.00 0.00 76 1013.7
20260507211955 16 0.0 0.0 0.00 0.00 0.00 76 1013.5
20260507205954 16 0.0 0.0 0.00 0.00 0.00 76 1013.5
20260507203953 17 0.0 0.0 0.00 0.00 0.00 74 1013.5
20260507201952 17 0.0 0.0 0.00 0.00 0.00 74 1013.5
20260507195950 17 0.0 0.0 0.00 0.00 0.00 74 1013.3
20260507193949 17 0.0 0.0 0.00 0.00 0.00 73 1013.1
20260507191948 17 0.0 0.0 0.00 0.00 0.00 71 1012.9
20260507185946 18 0.0 0.0 0.00 0.00 0.00 69 1012.8
20260507183945 18 0.0 0.0 0.00 0.00 0.00 69 1012.9
20260507181944 18 0.0 0.0 0.00 0.00 0.00 68 1012.8
20260507175942 18 0.0 0.0 0.00 0.00 0.00 67 1012.8
20260507173941 18 0.0 0.0 0.00 0.00 0.00 68 1012.7
20260507171940 18 0.0 0.0 0.00 0.00 0.00 68 1012.8
20260507165938 18 0.0 0.0 0.00 0.00 0.00 67 1012.9
20260507163937 18 0.0 0.0 0.00 0.00 0.00 69 1012.7
20260507161936 18 0.0 0.0 0.00 0.00 0.00 70 1012.6
20260507155934 20 0.0 0.0 0.00 0.00 0.00 66 1012.4
20260507153933 20 0.0 0.0 0.00 0.00 0.00 65 1012.5
20260507151932 20 0.0 0.0 0.00 0.00 0.00 65 1012.5
20260507145930 20 0.0 0.0 0.00 0.00 0.00 63 1012.6
20260507143929 20 0.0 0.0 0.00 0.00 0.00 62 1012.8
20260507141928 20 0.0 0.0 0.00 0.00 0.00 63 1012.7
20260507135926 20 0.0 0.0 0.00 0.00 0.00 64 1013.0
20260507133925 21 0.0 0.0 0.00 0.00 0.00 59 1013.0
20260507131924 21 0.0 0.0 0.00 0.00 0.00 59 1013.2
20260507125923 21 0.0 0.0 0.00 0.00 0.00 60 1013.1
20260507123921 20 0.0 0.0 0.00 0.00 0.00 61 1013.1
20260507121919 20 0.0 0.0 0.00 0.00 0.00 61 1012.9
20260507115918 20 0.0 0.0 0.00 0.00 0.00 60 1013.0
20260507113917 20 0.0 0.0 0.00 0.00 0.00 61 1013.0
20260507111916 20 0.0 0.0 0.00 0.00 0.00 61 1013.2
20260507105914 21 0.0 0.0 0.00 0.00 0.00 59 1013.2
20260507103913 21 0.0 0.0 0.00 0.00 0.00 59 1013.3
20260507101911 21 0.0 0.0 0.00 0.00 0.00 59 1013.5
20260507095910 20 0.0 0.0 0.00 0.00 0.00 63 1013.2
20260507093909 20 0.0 0.0 0.00 0.00 0.00 64 1013.2
20260507091908 19 0.0 0.0 0.00 0.00 0.00 68 1013.0
20260507085906 18 0.0 0.0 0.00 0.00 0.00 69 1012.9
20260507083905 18 0.0 0.0 0.00 0.00 0.00 67 1012.6
20260507081904 19 0.0 0.0 0.00 0.00 0.00 65 1012.5
20260507075902 18 0.0 0.0 0.00 0.00 0.00 65 1012.4
20260507073901 18 0.0 0.0 0.00 0.00 0.00 66 1012.3
20260507071900 17 0.0 0.0 0.00 0.00 0.00 69 1012.2
20260507065859 17 0.0 0.0 0.00 0.00 0.00 69 1012.1
20260507063857 16 0.0 0.0 0.00 0.00 0.00 71 1011.9
20260507061856 16 0.0 0.0 0.00 0.00 0.00 76 1011.9
20260507055855 16 0.0 0.0 0.00 0.00 0.00 74 1011.7
20260507053853 16 0.0 0.0 0.00 0.00 0.00 79 1011.6
20260507051852 16 0.0 0.0 0.00 0.00 0.00 78 1011.4
20260507045851 16 0.0 0.0 0.00 0.00 0.00 72 1011.1
20260507043849 16 0.0 0.0 0.00 0.00 0.00 80 1010.9
20260507041848 15 0.0 0.0 0.00 0.00 0.00 83 1010.8
20260507035847 15 0.0 0.0 0.00 0.00 0.00 81 1010.7
20260507033845 15 0.0 0.0 0.00 0.00 0.00 81 1010.6
20260507031844 15 0.0 0.0 0.00 0.00 0.00 84 1010.5
20260507025843 15 0.0 0.0 0.00 0.00 0.00 82 1010.5
20260507023842 15 0.0 0.0 0.00 0.00 0.00 82 1010.6
20260507021840 15 0.0 0.0 0.00 0.00 0.00 81 1010.5
20260507015839 15 0.0 0.0 0.00 0.00 0.00 81 1010.4
20260507013838 15 0.0 0.0 0.00 0.00 0.00 81 1010.2